Regional Weather Roundup
Issued by NWS

Home | Current Version | Previous Version | Text Only | Print | Product List | Glossary Off
Versions: 1 2 3 4 5 6 7 8 9 10 11 12 13 14 15 16 17 18 19 20 21 22 23 24 25 26 27 28 29 30 31 32 33 34 35 36 37 38 39 40 41 42 43 44 45 46 47 48 49 50

000
ASUS43 KTOP 212359
RWRKS

WEATHER ROUNDUP FOR KANSAS
NATIONAL WEATHER SERVICE GOODLAND KS
700 PM CDT MON AUG 21 2017

NOTE:  "FAIR" INDICATES FEW OR NO CLOUDS BELOW 12,000 FEET WITH NO
SIGNIFICANT WEATHER AND/OR OBSTRUCTIONS TO VISIBILITY.

KSZ001>006-013>018-027>032-041>047-220100-
NORTHWEST KANSAS

CITY           SKY/WX    TMP DP  RH WIND       PRES   REMARKS
GOODLAND       SUNNY     86  67  52 N18G25    30.01R
6HR MIN TEMP:  76; 6HR MAX TEMP:  90;

HAYS           MOSUNNY   90  67  46 S15G23    29.92F
HILL CITY      SUNNY     90  63  40 W8        29.93R
6HR MIN TEMP:  80; 6HR MAX TEMP:  93;

RUSSELL        PTSUNNY   90  63  40 S17G28    29.91F
6HR MIN TEMP:  80; 6HR MAX TEMP:  92;

$$

KSZ061>065-074>080-084>089-220100-
SOUTHWEST KANSAS

CITY           SKY/WX    TMP DP  RH WIND       PRES   REMARKS
DODGE CITY     MOSUNNY   85  63  47 SW22G30   29.99S
6HR MIN TEMP:  77; 6HR MAX TEMP:  91;

ELKHART          N/A     82  68  62 S14         N/A
GARDEN CITY    SUNNY     85  67  54 S15G24    29.98F
6HR MIN TEMP:  78; 6HR MAX TEMP:  88;

GREAT BEND     PTSUNNY   85  67  54 S16       29.95S
LIBERAL        SUNNY     83  67  58 SW17      30.03F
$$

KSZ066>073-081>083-090>101-220100-
SOUTHEAST KANSAS

CITY           SKY/WX    TMP DP  RH WIND       PRES   REMARKS
CHANUTE        SUNNY     87  75  67 S10       29.98F HX  96
6HR MIN TEMP:  83; 6HR MAX TEMP:  91;

COFFEYVILLE    SUNNY     88  75  65 S8        29.98F HX  97
6HR MIN TEMP:  83; 6HR MAX TEMP:  91;

HUTCHINSON     CLOUDY    84  71  65 SW9       29.95F
6HR MIN TEMP:  82; 6HR MAX TEMP:  90; 6HR PCP: TRACE;

MEDICINE LODGE   N/A     88  70  55 S3        29.95F
PARSONS        SUNNY     88  75  65 S8        29.99F HX  97
6HR MIN TEMP:  83; 6HR MAX TEMP:  90;

WICHITA INTL   PTSUNNY   91  69  48 S15       29.94F HX  96
6HR MIN TEMP:  85; 6HR MAX TEMP:  96; 6HR PCP: TRACE;

WICHITA JABRA  PTSUNNY   87  73  62 S14G22    29.95S
6HR MIN TEMP:  83; 6HR MAX TEMP:  92;

WINFIELD       MOSUNNY   87  73  62 S10       29.97F
6HR MIN TEMP:  83; 6HR MAX TEMP:  92;

$$

KSZ007>012-019>026-033>040-048>060-102>105-220100-
NORTHEAST KANSAS

CITY           SKY/WX    TMP DP  RH WIND       PRES   REMARKS
CONCORDIA      CLOUDY    79  76  90 SE6       29.93F
6HR MIN TEMP:  79; 6HR MAX TEMP:  85; 6HR PCP: TRACE;

EMPORIA        CLOUDY    86  74  67 S13       29.95F
6HR MIN TEMP:  83; 6HR MAX TEMP:  92;

LAWRENCE       MOSUNNY   88  76  67 S9        29.91F HX  99
6HR MIN TEMP:  76; 6HR MAX TEMP:  91; 6HR PCP:  0.26;

MANHATTAN      TSTM      80  73  79 S7        29.93S
6HR MIN TEMP:  79; 6HR MAX TEMP:  93; 6HR PCP:  0.06;

OLATHE IND     MOSUNNY   86  75  69 S9        29.95F HX  95
6HR MIN TEMP:  81; 6HR MAX TEMP:  89;

OLATHE EXE     MOSUNNY   83  77  82 SE6       29.96F
6HR MIN TEMP:  78; 6HR MAX TEMP:  87;

SALINA         CLOUDY    88  70  55 S12       29.93F
6HR MIN TEMP:  81; 6HR MAX TEMP:  94; 6HR PCP: TRACE;

TOPEKA BILLARD MOSUNNY   90  76  63 S9        29.90F HX 101
6HR MIN TEMP:  80; 6HR MAX TEMP:  92; 6HR PCP:  0.01;

TOPEKA FORBES  CLOUDY    89  76  65 S10       29.92F HX 100
6HR MIN TEMP:  83; 6HR MAX TEMP:  93; 6HR PCP: TRACE;

$$




USA.gov is the U.S. government's official web portal to all federal, state and local government web resources and services.